User: anonymous
Location: Unspecified
(0.0000°N, 0.0000°E)
Time: 17:23:45
(UTC+00:00)
Language:

PW SAT - Orbit

View from above orbital plane
View from above orbital plane
View from above satellite
View from above satellite

Ground track
Ground track

The orbit data is extracted from the following two-line orbital elements,

1 38083U 12006G   14114.16551552  .00162878  85475-5  18662-2 0  2132
2 38083 069.4517 118.9069 0351798 064.8520 298.8695 15.12571747115710
Epoch (UTC): 24 April 2014 03:58:20
Eccentricity: 0.0351798
inclination: 69.4517°
perigee height: 285 km
apogee height: 771 km
right ascension of ascending node: 118.9069°
argument of perigee: 64.8520°
revolutions per day: 15.12571747
mean anomaly at epoch: 298.8695°
orbit number at epoch: 11571

The dashed part of the orbit path shows where the satellite is in the earth's shadow,  

DLR